Terug naar catalogus

DELTA 1 DEB

ActiefLEO
NORAD 7085·DEBRIS·🇺🇸 United States

Gelanceerd Nov 6, 1973 vanaf Vandenberg Space Force Base

Loading…

Volgende Passages (komende 24 uur)

TLE

VersSource: Space-Track

Epoch: Sep 14, 2026, 06:02 UTC

1 07085U 73086CD  26257.25174713  .00000027  00000-0  42106-3 0  9991
2 07085 102.1832  59.9092 0097515  41.2562 132.6136 12.60298599427354

Volg DELTA 1 DEB in realtime met AllMySat

Download on the App Store